CAPE
0 0 0 0 0 0 0 0 0 0 0 0 0 0 0 0 0 0 0 0 0 33 215 296 322 310 257 479 508 638 573 686 842 873 646 778 551 678 518 585 448 375 330 278 211 157 163 182 104 88 9 2 0 54 0 0 0 2 88 424 514 648 771 728 776 422 566 50 668 83 0 0 0 220 723 988 1283 1967 2220 2321 2577 2788 3002 3088 2906 2829
0 0 0 0 0 0 0 0 0 0 0 0 0 0 0 0 0 0 0 0 86 84 241 330 360 352 279 213 420 499 498 606 586 807 711 866 1201 1297 950 590 866 768 329 341 303 200 227 198 98 98 11 4 0 36 2 2 0 0 110 317 423 333 781 695 838 586 663 88 691 76 0 0 0 445 511 557 1040 1822 2256 2162 2407 2649 2864 3180 3309 3201
0 0 0 0 0 0 0 0 0 0 0 0 0 0 0 0 0 0 0 0 72 103 240 282 313 313 244 345 429 391 456 510 646 829 817 796 1217 1254 966 661 592 672 584 358 340 298 286 269 132 89 49 2 0 37 12 21 4 0 150 197 351 458 852 602 1162 908 888 382 868 376 68 0 20 277 183 64 1065 2054 2103 2006 2172 2432 2731 3062 3263 3120
0 0 0 0 0 0 0 0 0 0 0 0 0 0 0 0 0 0 0 0 32 106 240 215 385 303 295 410 427 364 328 386 534 794 960 883 1098 1059 904 580 537 510 520 449 349 354 334 328 228 94 84 18 0 63 22 49 5 5 308 228 323 602 889 627 1327 1399 1164 718 925 397 170 9 48 36 85 46 1164 1887 1903 1741 1854 2214 2420 2914 3019 2943
0 0 0 0 0 0 0 0 0 0 0 0 0 0 0 0 0 0 0 0 8 14 237 367 411 289 199 500 419 423 382 315 586 596 1126 1122 1128 1032 931 606 567 558 586 457 352 403 388 377 396 197 114 55 7 54 22 77 8 0 145 344 390 484 1172 880 1316 1630 1305 1140 1091 483 392 281 17 72 2 84 238 1612 1725 1485 1457 2091 2116 2555 2809 3008
0 0 0 0 0 0 0 0 0 0 0 0 0 0 0 0 0 0 0 0 0 0 248 319 270 311 318 319 407 372 355 360 450 714 1269 1256 1253 942 764 487 498 566 516 657 561 298 389 397 437 369 144 75 32 77 20 127 24 20 176 441 490 352 1160 1282 1176 1516 1320 983 888 357 312 229 73 0 0 6 0 1277 1524 1361 1277 1792 2074 2222 2436 2630
0 0 0 0 0 0 0 0 0 0 0 0 0 0 0 0 0 0 0 0 0 0 254 193 185 378 264 334 350 341 373 408 436 410 1468 1394 1144 936 761 613 446 601 786 1033 810 312 360 394 440 406 232 83 73 107 26 141 31 131 36 540 535 478 632 1546 1185 1346 1318 915 788 313 217 25 33 0 0 0 7 575 1226 1022 1115 1205 1784 1937 2327 2431
0 0 0 0 0 0 0 0 0 0 0 0 0 0 0 0 0 0 0 0 0 0 0 0 118 342 326 302 239 275 404 418 445 386 1142 1310 1121 902 778 693 598 712 974 980 1085 485 397 374 362 438 234 120 160 126 60 138 116 414 17 654 484 780 581 1270 1312 1127 1117 927 746 289 244 213 16 66 0 36 72 0 339 1002 916 821 1038 1223 1626 2405
0 0 0 0 0 0 0 0 0 0 0 0 0 0 0 0 0 0 0 0 0 0 0 0 0 45 219 307 186 307 309 259 243 250 862 1077 932 854 783 658 621 781 944 942 978 674 487 422 408 493 485 428 205 188 141 114 187 485 148 640 616 992 835 1032 1428 1022 998 1118 725 328 243 278 204 886 97 278 831 262 94 944 1014 699 727 782 472 1470
0 0 0 0 0 0 0 0 0 0 0 0 0 0 0 0 0 0 0 0 0 0 0 0 0 0 53 204 254 215 251 226 166 306 755 1037 993 811 708 739 757 795 860 868 963 1009 578 510 474 490 506 466 347 249 282 168 242 691 415 560 962 830 1255 1252 1513 1065 980 1014 969 309 365 149 465 905 1010 386 884 1117 352 24 1083 911 742 769 534 976
0 0 0 0 0 0 0 0 0 0 0 0 0 0 0 0 0 0 0 0 0 0 0 0 0 0 0 189 308 236 238 168 240 303 903 1040 900 829 786 834 838 807 846 793 923 865 724 586 531 488 472 459 410 340 331 303 366 828 756 602 1167 849 1380 1590 1534 1255 934 987 1028 348 401 215 419 608 1166 612 462 811 1273 342 1155 1023 1022 595 573 739
0 0 0 0 0 0 0 0 0 0 0 0 0 0 0 0 0 0 0 0 0 0 0 0 0 0 0 0 157 198 150 212 246 335 628 1198 916 826 791 880 878 724 715 600 801 988 953 660 570 535 494 511 505 392 431 444 600 784 1067 870 1007 1224 1201 1752 1666 1477 1017 1042 1029 473 412 376 400 364 1147 712 494 553 1104 1217 634 1525 1104 829 626 617
0 0 0 0 0 0 0 0 0 0 0 0 0 0 0 0 0 0 0 0 0 0 0 0 0 0 0 0 0 166 205 268 246 322 460 1108 1065 838 800 912 898 694 866 997 814 972 963 790 678 567 530 523 540 515 418 461 802 887 1220 1107 1024 1351 1293 1806 1856 1572 1241 1096 1068 748 429 578 520 331 1212 795 667 446 792 731 1282 1463 1122 993 770 761
0 0 0 0 0 0 0 0 0 0 0 0 0 0 0 0 0 0 0 0 0 0 0 0 0 0 0 0 0 0 164 214 197 240 610 1022 1070 914 834 915 871 659 828 1110 924 929 826 742 720 613 600 576 579 634 570 678 1027 1096 1267 1352 1092 1302 1437 1759 1977 1656 1369 1186 1198 934 611 649 793 441 849 944 982 582 445 640 1446 1314 1425 1222 947 1092
0 0 0 0 0 0 0 0 0 0 0 0 0 0 0 0 0 0 0 0 0 0 0 0 0 0 0 0 0 0 0 84 200 217 648 937 923 832 827 881 803 733 681 813 1028 996 900 840 944 774 708 678 664 715 705 951 1113 1270 1330 1524 1352 1311 1489 1662 2047 1739 1466 1320 1248 1154 850 660 858 590 637 909 1108 879 495 681 930 1636 1367 1410 1389 1447
0 0 0 0 0 0 0 0 0 0 0 0 0 0 0 0 0 0 0 0 0 0 0 0 0 0 0 0 0 0 0 0 52 135 385 865 801 921 855 721 761 800 874 840 902 916 939 1063 1189 973 865 942 1065 796 819 983 1234 1431 1445 1630 1554 1483 1539 1577 2057 1801 1552 1366 1282 1259 1039 786 887 898 565 785 1048 1217 718 813 574 1538 1643 1178 1366 1702
0 0 0 0 0 0 0 0 0 0 0 0 0 0 0 0 0 0 0 0 0 0 0 0 0 0 0 0 0 0 0 0 0 97 246 574 869 870 763 664 789 814 925 892 784 788 849 1221 1380 1264 1092 1135 1283 1139 1086 1265 1364 1650 1662 1739 1794 1694 1703 1545 1901 1888 1575 1383 1254 1258 1089 826 893 863 669 683 812 1412 1182 1121 785 1127 1744 1603 1097 1093
0 0 0 0 0 0 0 0 0 0 0 0 0 0 0 0 0 0 0 0 0 0 0 0 0 0 0 0 0 0 0 0 0 2 388 961 1056 889 755 798 772 803 862 945 899 846 991 1330 1270 1419 1357 1358 1445 1377 1315 1417 1483 1692 1950 1939 1939 1962 1939 1722 1709 1851 1628 1388 1325 1233 1119 861 803 856 781 670 751 905 1635 1483 1279 1215 1579 1863 1706 1188
0 0 0 0 0 0 0 0 0 0 0 0 0 0 0 0 0 0 0 0 0 0 0 0 0 0 0 0 0 0 0 0 0 0 656 981 1039 877 818 759 745 826 928 945 962 1092 1438 1397 1361 1372 1517 1462 1552 1539 1401 1486 1590 1751 2075 2253 2186 2158 2198 2066 1871 1859 1729 1445 1379 1349 1214 960 828 800 851 753 873 744 1379 1835 1625 1537 1589 1812 1986 1752
0 0 0 0 0 0 0 0 0 0 0 0 0 0 0 0 0 0 0 0 0 0 0 0 0 0 0 0 0 0 0 0 0 0 952 782 909 890 776 770 900 1002 1047 973 898 1364 1478 1434 1366 1307 1412 1550 1517 1556 1560 1581 1716 1858 2110 2471 2477 2438 2426 2405 2190 2168 1971 1664 1431 1447 1365 1155 974 919 889 894 1051 950 1058 1795 1966 1782 1747 1684 2057 2034
0 0 0 0 0 2 2 0 0 2 1 0 3 2 0 0 0 0 0 0 0 0 0 0 0 0 0 0 0 0 0 0 0 0 508 672 796 826 742 901 975 1014 962 896 943 1431 1478 1429 1340 1250 1283 1396 1508 1570 1636 1595 1734 1961 2110 2488 2634 2673 2694 2653 2478 2369 2288 2014 1675 1538 1480 1364 1272 1177 1102 1135 1225 1202 1099 1467 2093 2007 1870 1699 1683 2154
0 0 0 0 0 0 3 11 6 0 0 0 0 4 5 0 0 0 0 0 0 0 0 0 0 0 0 0 0 0 0 0 0 0 72 751 761 634 760 879 932 986 913 852 1088 1424 1494 1405 1316 1248 1175 1221 1348 1467 1582 1598 1652 1961 2144 2399 2671 2780 2822 2819 2667 2518 2461 2301 2004 1646 1542 1471 1442 1411 1302 1284 1398 1511 1356 1509 1872 2105 1910 1768 1472 1781
0 0 0 0 0 0 0 20 21 8 0 7 0 0 12 2 1 0 1 1 2 0 0 0 0 0 0 0 1 0 0 0 0 0 0 1029 886 817 848 883 843 768 757 797 1199 1476 1493 1351 1267 1189 1270 1335 1290 1357 1539 1646 1763 1990 2195 2364 2601 2732 2846 2835 2762 2600 2499 2429 2224 1882 1642 1511 1475 1470 1417 1373 1462 1631 1602 1667 1823 2012 1897 1768 1569 1258
0 0 0 0 0 0 0 25 49 39 20 12 6 2 8 11 10 3 0 4 2 5 0 0 0 2 27 5 0 0 0 0 0 0 0 946 892 875 911 856 761 748 778 1021 1168 1338 1415 1285 1173 1259 1379 1405 1469 1516 1633 1679 1746 1840 2076 2366 2590 2703 2812 2863 2836 2679 2591 2492 2305 2066 1777 1554 1482 1473 1440 1387 1482 1716 1794 1834 1937 2028 1917 1751 1644 1322
0 0 0 0 0 0 0 4 63 54 55 44 19 3 2 8 18 10 0 0 0 3 10 0 0 0 55 100 126 118 97 3 4 0 0 51 736 706 811 815 743 777 857 949 1041 1048 1040 1062 1135 1333 1511 1454 1423 1570 1841 1855 1685 1696 1806 2045 2572 2830 2946 2974 2922 2794 2704 2557 2385 2136 1887 1656 1458 1454 1470 1443 1472 1728 1921 2000 2070 2140 1976 1736 1724 1540
0 0 0 0 0 0 0 0 24 28 47 62 48 12 10 12 10 6 0 0 0 6 4 1 16 0 25 218 277 250 171 83 66 15 1 0 0 760 705 836 766 912 951 889 861 964 958 1034 1246 1538 1628 1592 1599 1646 1755 1882 1839 1704 1760 1869 2456 3013 3144 3138 3049 2965 2817 2644 2447 2207 2045 1788 1533 1433 1448 1487 1486 1645 1872 2041 2124 2180 2164 1820 1700 1710
0 0 0 0 0 0 0 0 0 20 32 46 77 85 31 14 8 8 4 0 0 4 4 0 6 0 24 160 258 245 328 441 411 242 269 93 4 4 568 609 626 667 913 890 908 1161 1174 1125 1211 1421 1586 1622 1646 1697 1748 1823 1860 1888 1814 1876 2199 3004 3287 3272 3175 3099 2971 2766 2482 2266 2158 1956 1672 1496 1450 1489 1490 1562 1734 1900 2049 2089 2197 2042 1724 1675
0 0 0 0 0 0 0 0 0 0 19 37 66 85 62 16 10 9 9 2 0 7 16 6 19 0 2 31 212 238 383 401 352 244 272 280 352 420 346 377 582 548 843 901 989 1102 1087 1207 1385 1406 1509 1558 1586 1626 1696 1772 1891 1930 1862 1878 2174 2954 3287 3357 3319 3202 3088 2948 2656 2299 2237 2081 1812 1591 1464 1465 1475 1548 1669 1802 2008 2021 2034 2085 1855 1586
0 0 0 0 0 0 0 0 0 0 0 6 60 95 82 47 15 8 13 4 0 2 13 12 24 19 8 14 197 282 386 413 366 324 254 283 320 464 495 602 734 658 836 976 1011 1002 1027 1180 1392 1476 1456 1473 1513 1515 1559 1655 1824 1946 1930 1999 2381 2941 3307 3434 3414 3330 3216 3091 2896 2554 2328 2171 1924 1658 1523 1580 1556 1591 1668 1754 2079 2154 1997 2008 1914 1600
0 0 0 0 0 0 0 0 0 0 0 0 7 73 94 69 42 7 12 6 1 6 26 21 36 46 22 155 83 329 408 397 354 312 256 288 553 783 973 905 814 764 979 1176 1421 1783 1944 1949 1350 1319 1412 1401 1413 1409 1445 1511 1590 1864 2042 2284 2508 2792 3271 3505 3496 3417 3291 3221 3070 2802 2408 2231 2006 1772 1668 1639 1610 1638 1757 1809 2020 2279 2147 1982 1890 1638
0 0 0 0 0 0 0 0 0 0 0 0 0 41 89 88 60 25 9 12 2 3 39 50 44 45 42 195 169 479 382 282 363 542 526 522 695 830 834 1099 1200 1086 963 1263 1580 1584 1773 2021 1780 1974 2005 1979 2127 1711 1266 1272 1983 2340 2558 2759 2737 2820 3185 3412 3564 3522 3412 3314 3145 2951 2668 2303 2062 1837 1799 1792 1698 1672 1770 1819 1890 2101 2198 2038 1877 1674
0 0 0 0 0 0 0 0 0 0 0 0 0 0 69 100 80 39 27 20 8 14 48 63 38 62 106 504 446 449 247 279 380 414 351 347 463 760 820 907 1077 1170 1211 1173 1224 1444 1581 1809 2050 1770 2150 2166 2284 2094 1882 1803 2333 2552 2734 3053 2830 2926 3114 3378 3537 3555 3511 3399 3246 3086 2824 2468 2117 1884 1881 1902 1844 1760 1818 1915 1884 1934 2118 2081 1963 1821
33 0 0 0 0 0 0 0 0 0 0 0 0 0 2 74 61 41 33 29 12 17 60 69 53 40 29 490 556 362 182 123 322 337 311 265 225 294 406 604 709 800 920 855 1053 1282 1606 1590 1815 2206 2282 2222 2333 2516 2474 2292 2524 2580 2860 2776 2683 3049 3032 3380 3466 3529 3535 3472 3343 3196 3028 2706 2274 1962 1958 1997 1985 1888 1860 2014 2005 1894 2083 2262 2174 2007
2 3 0 0 0 0 0 0 0 0 0 0 0 0 0 0 21 8 36 42 34 35 67 67 23 176 338 410 386 352 238 116 191 297 236 222 280 197 259 344 343 410 552 598 731 922 1235 1462 1468 1496 2160 2244 2132 2251 2484 2502 2459 2464 2421 2336 2782 2782 3264 3206 3505 3506 3499 3481 3400 3304 3149 2864 2465 2168 2106 2149 2123 2030 1939 2013 2118 1988 2013 2338 2306 2182
3 58 76 93 1 0 0 0 0 0 0 0 0 0 0 0 0 6 0 0 81 82 134 51 11 244 304 445 304 249 212 57 49 106 101 50 230 232 214 296 348 290 324 323 536 651 598 892 1825 1807 2059 2223 2114 2646 2248 2325 1822 1649 2244 2351 2320 2849 2974 3127 3483 3532 3477 3428 3376 3295 3144 2909 2623 2236 2267 2274 2283 2199 2054 1990 2084 2079 1992 2210 2372 2274
8 1 178 48 92 5 0 0 0 0 0 0 0 0 0 0 3 145 63 185 229 130 49 119 5 233 179 72 80 132 203 20 14 94 62 54 122 206 173 185 277 251 306 316 351 604 508 570 573 1201 1660 1873 1766 2565 3083 2594 2541 1924 1443 2104 2542 2636 2913 3071 3291 3507 3459 3372 3283 3217 3082 2891 2667 2383 2404 2363 2407 2368 2231 2069 2070 2190 2115 2034 2283 2316
1 12 78 2 68 0 3 7 1 0 0 0 0 0 0 160 196 235 44 44 249 182 15 22 13 10 82 1 35 39 37 14 2 1 22 44 68 114 178 134 169 218 234 252 244 349 435 366 422 500 631 1168 1474 1713 2484 2889 2675 2808 2750 2192 2879 3222 3181 3039 3216 3422 3430 3342 3418 3200 3246 3048 2706 2533 2533 2429 2496 2524 2409 2216 2120 2230 2274 2076 2115 2309
284 40 112 32 19 10 26 7 10 0 0 0 0 6 145 202 253 183 119 33 282 60 0 21 47 7 4 2 3 62 188 26 17 0 9 35 37 59 104 143 114 152 183 218 204 217 316 346 242 256 610 1017 1478 1902 2135 2308 2296 2345 2660 2592 2277 3107 3158 3089 3146 3419 3425 3392 3497 3465 3405 3278 3061 2884 2723 2514 2537 2622 2590 2406 2222 2252 2439 2256 2034 2244
79 12 383 27 10 9 15 0 0 0 0 187 445 451 230 148 44 41 15 0 209 40 0 0 12 15 0 0 0 7 10 25 24 2 0 14 32 33 48 68 128 102 72 150 147 153 144 224 322 496 677 904 1332 1708 2074 2386 2633 2816 2909 2723 2627 2932 3262 3101 3066 3391 3535 3419 3491 3523 3534 3462 3270 3093 2937 2706 2590 2647 2729 2625 2392 2260 2424 2444 2141 2057
10 57 167 1 0 27 17 13 0 0 0 330 345 181 187 156 23 0 0 103 0 0 0 0 0 13 12 0 0 0 12 38 30 10 0 2 21 33 50 67 80 110 0 0 5 111 107 173 277 387 459 709 976 1243 1618 1952 2258 2604 2995 3128 2859 2608 3039 3243 3030 3123 3568 3492 3515 3584 3604 3602 3484 3298 3142 2944 2728 2706 2775 2785 2612 2374 2352 2446 2330 2049
5 2 20 35 1 30 11 0 0 0 7 268 191 228 203 284 95 0 0 259 0 0 0 0 0 0 0 7 0 12 0 0 0 0 0 0 16 26 30 21 36 42 84 0 0 0 195 204 294 316 460 549 786 1108 1509 1932 2297 2575 2750 2914 2977 2785 2696 3052 3089 2958 3567 3594 3559 3636 3664 3705 3680 3542 3383 3166 2963 2845 2872 2878 2799 2564 2386 2415 2372 2156
26 28 37 24 9 8 6 0 0 1 219 201 153 186 292 281 17 4 298 0 0 0 0 0 0 0 0 0 0 0 0 0 0 0 0 0 1 7 8 8 10 0 0 0 0 10 221 399 457 488 528 585 789 1236 1840 2446 2800 2919 2778 2700 2815 2839 2604 2829 3003 2976 3601 3663 3600 3687 3789 3870 3856 3778 3645 3496 3266 3093 3001 3008 2924 2724 2514 2428 2376 2244
0 0 0 0 20 38 0 0 0 1 34 8 108 86 246 243 264 206 0 18 22 0 0 0 0 0 0 0 0 0 0 0 0 0 0 0 0 0 0 0 0 0 0 0 77 122 176 180 260 404 428 511 842 1184 1885 2506 3118 3556 3343 2908 2841 2780 2586 2714 2931 2993 3642 3784 3653 3731 3876 3938 3995 3948 3923 3801 3656 3426 3199 3190 3122 2896 2648 2520 2417 2298
1 1 2 0 7 8 0 0 46 266 12 50 48 36 41 119 122 63 131 89 9 0 0 0 0 0 0 0 0 0 0 0 0 0 0 0 0 0 0 0 0 0 0 0 46 155 214 256 391 455 461 592 1004 1369 1865 2770 3479 3986 4011 3630 3221 2824 2577 2780 2963 2909 3606 3858 3730 3724 3846 3953 4030 4070 4074 4028 3967 3846 3592 3507 3444 3168 2838 2642 2499 2356
0 0 0 0 16 0 0 0 18 0 28 36 119 13 42 70 12 14 3 36 9 0 0 0 0 0 0 0 0 0 0 0 0 0 0 0 0 0 0 0 0 0 0 0 0 160 232 326 393 476 534 778 1146 1436 2040 3094 3870 4330 4349 4297 3813 2959 2790 2970 3019 3028 3534 3801 3776 3721 3815 3921 3996 4058 4077 4097 4147 4153 4006 3860 3811 3601 3202 2890 2668 2496
2 0 0 0 0 2 0 0 11 2 0 0 0 121 150 148 42 41 26 0 5 3 0 0 0 0 0 0 0 0 0 0 0 0 0 0 0 0 0 0 0 0 0 95 203 266 346 438 493 647 615 880 1194 1571 2155 2655 3346 3961 4073 4216 4251 3371 3153 3172 3105 3111 3395 3759 3784 3751 3786 3906 3948 3998 4003 4006 4136 4272 4220 4138 4071 3894 3649 3258 2966 2740
0 0 0 0 0 1 1 66 9 0 0 0 0 16 105 159 264 222 8 14 3 1 0 0 0 0 0 0 0 0 0 0 0 0 0 0 0 0 0 0 0 0 2 0 203 262 320 425 479 574 704 928 1125 1342 1784 2358 2887 3161 3431 3968 4711 4102 3531 3358 3280 3229 3380 3736 3818 3828 3852 3898 3956 4028 4037 3972 4058 4252 4333 4328 4305 4130 3888 3662 3393 3111
0 0 0 3 6 2 0 1 24 0 0 0 0 0 0 0 0 0 7 0 0 0 0 0 0 0 0 0 0 0 0 0 0 0 0 0 0 0 0 0 0 0 7 68 222 247 345 456 584 697 773 851 941 1183 1703 2224 2711 3031 3446 4202 4609 4437 3778 3541 3404 3400 3540 3794 3860 3911 3954 3995 4017 4113 4156 4077 4056 4255 4424 4425 4436 4315 4128 3940 3706 3426
0 0 3 0 0 0 0 16 0 0 0 1 0 0 0 0 0 0 0 0 0 0 0 0 0 0 0 0 0 0 0 0 0 0 0 0 0 0 0 0 0 0 1 0 211 302 370 487 602 674 721 862 968 1206 1619 2143 2579 2889 3154 4056 4273 4272 3970 3763 3597 3564 3703 3920 3982 3943 3960 4040 4094 4152 4278 4247 4140 4215 4470 4578 4456 4445 4319 4103 3959 3675
0 1 1 0 1 0 0 0 0 1 1 0 0 0 0 0 0 0 0 0 0 0 8 6 0 0 0 0 0 0 0 0 0 0 0 2 4 1 0 0 0 72 116 108 141 255 474 550 625 668 666 805 995 1195 1451 1832 2334 2743 2918 3554 3993 3973 3905 4204 3940 3759 3812 3977 4055 4003 3903 3955 4032 4146 4309 4383 4361 4378 4500 4522 4562 4531 4366 4246 4142 3973
0 0 0 0 0 0 0 1 10 10 6 0 0 0 0 6 8 5 2 3 0 0 10 9 0 0 0 2 2 0 0 0 0 0 0 0 0 0 0 0 0 102 124 112 163 271 374 618 673 690 686 756 975 1232 1419 1695 2039 2578 2804 2990 3606 3720 3669 3856 4328 4355 3958 3970 4043 4030 3960 3900 3945 4083 4222 4237 4206 4465 4547 4514 4513 4491 4380 4248 4151 4070
Wind_Speed
nan nan nan nan nan nan nan nan nan nan nan nan nan nan nan nan nan nan nan nan nan nan 31 29 31 36 32 30 27 22 25 20 27 8 12 13 13 12 13 11 10 13 11 9 10 8 9 10 9 nan nan nan nan nan nan nan nan nan nan 5 4 1 1 2 3 3 3 nan 5 nan nan nan nan 9 9 7 8 8 9 8 9 9 10 10 11 12
nan nan nan nan nan nan nan nan nan nan nan nan nan nan nan nan nan nan nan nan nan nan 28 29 33 35 32 34 29 23 21 19 22 16 13 11 13 15 16 16 14 11 11 12 11 9 9 10 nan nan nan nan nan nan nan nan nan nan 7 6 4 3 1 1 2 3 3 nan 6 nan nan nan nan 8 8 8 8 8 8 8 8 9 9 9 11 11
nan nan nan nan nan nan nan nan nan nan nan nan nan nan nan nan nan nan nan nan nan 24 29 34 35 31 31 38 32 27 22 16 14 18 16 13 12 13 12 14 14 14 10 10 11 12 10 10 9 nan nan nan nan nan nan nan nan nan 7 5 6 4 3 1 1 1 4 6 6 5 nan nan nan 8 8 nan 6 7 8 8 8 8 9 10 10 10
nan nan nan nan nan nan nan nan nan nan nan nan nan nan nan nan nan nan nan nan nan 16 28 32 36 35 36 34 28 26 25 17 17 20 19 16 13 11 11 14 16 12 9 4 11 14 14 12 7 nan nan nan nan nan nan nan nan nan 8 7 6 5 4 2 0 2 4 6 6 4 4 nan nan nan nan nan 2 6 6 7 7 7 8 9 10 11
nan nan nan nan nan nan nan nan nan nan nan nan nan nan nan nan nan nan nan nan nan nan 32 36 38 37 37 32 28 28 25 21 22 20 21 18 13 11 13 15 13 8 7 5 5 13 16 14 9 9 8 nan nan nan nan nan nan nan 9 8 7 6 5 3 2 2 3 4 6 6 4 4 nan nan nan nan 3 4 5 5 7 7 8 9 10 10
nan nan nan nan nan nan nan nan nan nan nan nan nan nan nan nan nan nan nan nan nan nan 24 39 36 33 31 30 32 29 25 20 21 19 19 18 15 12 12 11 7 4 6 8 5 12 17 16 11 11 9 nan nan nan nan 8 nan nan 11 10 9 7 6 4 4 3 2 4 5 5 3 3 nan nan nan nan nan 4 4 6 7 6 7 8 8 9
nan nan nan nan nan nan nan nan nan nan nan nan nan nan nan nan nan nan nan nan nan nan 17 26 34 31 30 28 28 27 26 22 20 16 17 18 15 11 10 9 5 6 7 5 4 13 15 17 15 12 9 nan nan 10 nan 10 nan 12 nan 11 11 7 6 4 3 2 3 2 5 4 3 nan nan nan nan nan nan 2 4 5 5 6 6 7 7 8
nan nan nan nan nan nan nan nan nan nan nan nan nan nan nan nan nan nan nan nan nan nan nan nan 17 33 30 22 27 30 28 24 20 13 14 18 16 11 10 8 7 9 9 8 5 10 14 15 16 14 11 9 10 12 nan 10 9 12 nan 13 11 10 6 4 1 2 3 2 3 4 5 4 nan nan nan nan nan nan 3 3 5 5 6 7 7 6
nan nan nan nan nan nan nan nan nan nan nan nan nan nan nan nan nan nan nan nan nan nan nan nan nan nan 27 22 22 29 26 22 17 10 10 15 16 11 10 10 10 9 8 8 6 6 14 16 15 12 11 10 12 11 10 10 10 13 12 13 13 11 8 4 3 1 1 3 2 3 4 5 5 3 nan 4 3 2 nan 1 4 5 5 6 7 6
nan nan nan nan nan nan nan nan nan nan nan nan nan nan nan nan nan nan nan nan nan nan nan nan nan nan nan 21 21 21 23 21 15 13 11 15 15 12 12 11 10 8 8 6 5 5 10 15 13 12 11 11 11 11 12 11 12 14 13 12 12 11 9 6 4 3 1 2 3 3 4 3 5 6 4 4 3 2 3 nan 4 3 4 5 6 5
nan nan nan nan nan nan nan nan nan nan nan nan nan nan nan nan nan nan nan nan nan nan nan nan nan nan nan 17 22 22 17 20 17 15 16 15 15 14 13 13 10 8 8 7 6 5 7 12 13 12 13 12 11 12 12 12 11 13 12 11 11 10 11 8 6 5 3 2 3 3 3 2 4 5 4 3 3 4 4 2 1 3 3 4 5 4
nan nan nan nan nan nan nan nan nan nan nan nan nan nan nan nan nan nan nan nan nan nan nan nan nan nan nan nan 17 19 19 24 22 20 19 17 16 16 14 14 13 11 9 8 8 8 8 9 9 12 14 13 11 10 12 11 12 12 12 11 11 11 11 9 6 6 5 4 3 4 4 2 2 4 5 3 2 2 2 1 1 1 1 3 4 3
nan nan nan nan nan nan nan nan nan nan nan nan nan nan nan nan nan nan nan nan nan nan nan nan nan nan nan nan nan 11 14 19 18 16 18 18 17 18 18 18 17 14 11 9 9 9 9 8 7 12 13 12 11 8 11 12 12 12 12 11 11 10 11 10 7 6 6 5 5 5 4 3 3 3 5 4 3 3 3 3 2 4 3 2 3 4
nan nan nan nan nan nan nan nan nan nan nan nan nan nan nan nan nan nan nan nan nan nan nan nan nan nan nan nan nan nan 16 18 19 14 16 20 21 19 18 20 19 16 12 8 8 9 10 9 7 10 10 10 10 9 10 10 11 12 12 11 9 9 10 11 9 7 6 6 6 6 5 4 3 4 5 6 5 3 4 4 3 4 5 4 5 5
nan nan nan nan nan nan nan nan nan nan nan nan nan nan nan nan nan nan nan nan nan nan nan nan nan nan nan nan nan nan nan nan 22 21 17 18 21 19 17 19 20 18 13 9 6 8 11 11 9 8 8 7 10 11 10 9 10 12 12 10 8 8 9 10 9 8 7 7 7 7 6 4 3 4 6 7 7 6 5 5 4 3 4 4 4 5
nan nan nan nan nan nan nan nan nan nan nan nan nan nan nan nan nan nan nan nan nan nan nan nan nan nan nan nan nan nan nan nan nan 24 24 18 19 19 12 14 17 16 14 11 11 10 11 12 10 6 5 6 8 12 11 11 10 12 12 11 9 8 8 8 9 7 7 8 8 8 7 5 4 4 6 8 9 8 7 6 5 4 4 3 3 3
nan nan nan nan nan nan nan nan nan nan nan nan nan nan nan nan nan nan nan nan nan nan nan nan nan nan nan nan nan nan nan nan nan nan 32 30 28 25 12 8 13 14 15 17 15 14 14 15 13 6 4 5 9 11 12 11 11 13 14 13 11 9 9 7 7 7 7 8 9 8 7 7 5 4 5 6 7 9 8 8 7 6 4 4 3 3
nan nan nan nan nan nan nan nan nan nan nan nan nan nan nan nan nan nan nan nan nan nan nan nan nan nan nan nan nan nan nan nan nan nan 37 42 38 32 17 10 12 12 15 19 17 16 16 16 14 9 4 6 9 12 11 11 12 13 14 14 13 11 9 8 8 8 8 8 8 9 8 7 6 5 5 6 7 8 9 9 8 7 7 6 5 4
nan nan nan nan nan nan nan nan nan nan nan nan nan nan nan nan nan nan nan nan nan nan nan nan nan nan nan nan nan nan nan nan nan nan 41 45 43 36 28 22 20 16 16 19 18 16 17 16 14 11 7 6 8 10 11 11 13 14 15 15 14 11 10 10 10 9 9 8 9 10 8 7 6 5 6 7 7 8 8 9 9 8 8 7 7 6
nan nan nan nan nan nan nan nan nan nan nan nan nan nan nan nan nan nan nan nan nan nan nan nan nan nan nan nan nan nan nan nan nan nan 39 42 39 34 32 34 34 28 22 21 20 15 15 15 15 13 9 8 8 8 9 12 13 16 16 16 14 12 11 10 8 8 6 6 8 9 10 8 6 6 6 7 8 8 8 9 9 8 8 8 8 8
nan nan nan nan nan nan nan nan nan nan nan nan nan nan nan nan nan nan nan nan nan nan nan nan nan nan nan nan nan nan nan nan nan nan 28 32 33 30 32 36 37 32 20 19 18 15 13 14 14 12 11 9 7 6 7 10 12 14 14 14 15 14 11 8 6 7 6 7 6 8 8 8 8 7 6 7 7 7 8 9 10 9 8 8 8 9
nan nan nan nan nan nan nan nan nan nan nan nan nan nan nan nan nan nan nan nan nan nan nan nan nan nan nan nan nan nan nan nan nan nan nan 26 30 25 25 29 36 31 20 15 15 14 12 13 12 12 12 10 7 6 7 8 9 11 13 13 13 12 10 8 6 6 7 7 7 6 7 8 9 8 7 7 7 8 8 9 10 10 9 9 8 9
nan nan nan nan nan nan nan nan nan nan nan nan nan nan nan nan nan nan nan nan nan nan nan nan nan nan nan nan nan nan nan nan nan nan nan 24 27 25 22 29 36 37 31 25 21 18 17 15 12 11 11 10 8 7 9 8 7 6 9 12 10 10 8 7 6 6 8 7 7 7 8 9 9 9 8 8 7 8 9 10 11 11 10 9 9 9
nan nan nan nan nan nan nan nan nan nan nan nan nan nan nan nan nan nan nan nan nan nan nan nan nan nan nan nan nan nan nan nan nan nan nan 23 31 29 28 32 36 35 34 33 29 26 24 20 15 13 11 10 9 10 10 9 7 6 5 9 10 9 8 7 5 5 6 6 7 8 9 9 10 10 9 8 8 9 10 10 11 11 11 10 10 10
nan nan nan nan nan nan nan nan nan nan nan nan nan nan nan nan nan nan nan nan nan nan nan nan nan nan nan 25 26 32 nan nan nan nan nan nan 36 28 31 30 32 30 32 32 29 28 27 23 20 17 14 12 11 11 11 12 10 7 5 7 10 10 9 7 5 4 5 5 7 8 9 9 10 10 10 9 9 9 10 11 12 12 11 11 10 10
nan nan nan nan nan nan nan nan nan nan nan nan nan nan nan nan nan nan nan nan nan nan nan nan nan nan nan 35 33 36 42 nan nan nan nan nan nan 41 34 28 24 25 27 27 25 26 24 21 22 23 19 16 14 13 12 13 14 11 8 6 9 12 11 9 7 6 6 6 7 7 8 9 10 10 11 11 10 10 11 12 12 13 12 11 11 11
nan nan nan nan nan nan nan nan nan nan nan nan nan nan nan nan nan nan nan nan nan nan nan nan nan nan nan 48 37 41 46 42 38 47 45 nan nan nan 31 24 22 27 27 24 23 24 24 22 21 23 22 20 18 17 15 13 15 15 12 9 9 12 13 12 10 9 7 7 8 7 8 8 9 10 11 11 12 12 12 12 12 13 13 12 11 11
nan nan nan nan nan nan nan nan nan nan nan nan nan nan nan nan nan nan nan nan nan nan nan nan nan nan nan nan 43 45 51 43 39 48 46 42 51 51 44 34 28 28 28 25 22 23 23 19 17 20 22 21 19 19 18 16 17 18 16 12 11 13 15 13 12 10 8 7 7 7 8 8 9 9 10 11 12 12 13 12 13 14 14 14 12 11
nan nan nan nan nan nan nan nan nan nan nan nan nan nan nan nan nan nan nan nan nan nan nan nan nan nan nan nan 41 48 49 41 44 48 46 46 53 55 58 63 58 42 38 42 38 31 23 19 18 16 18 19 19 20 22 21 20 20 18 16 15 15 15 15 12 11 9 7 7 7 7 7 7 7 9 11 11 11 12 12 13 15 15 15 14 13
nan nan nan nan nan nan nan nan nan nan nan nan nan nan nan nan nan nan nan nan nan nan nan nan nan nan nan 51 nan 46 50 48 46 47 49 52 55 53 57 60 58 52 53 54 56 58 53 43 36 33 28 27 24 23 24 25 23 20 18 16 16 15 16 16 13 11 10 8 5 5 6 6 7 7 8 9 10 10 12 12 13 15 15 16 15 15
nan nan nan nan nan nan nan nan nan nan nan nan nan nan nan nan nan nan nan nan nan nan nan nan nan nan nan 53 50 43 51 58 56 57 56 52 54 55 57 58 56 55 54 53 54 57 53 47 47 46 47 49 51 47 40 38 28 22 20 20 19 17 15 15 13 11 10 9 7 7 6 6 6 7 8 9 8 9 11 12 12 13 15 16 16 16
nan nan nan nan nan nan nan nan nan nan nan nan nan nan nan nan nan nan nan nan nan nan nan nan nan nan 44 55 55 56 60 63 63 63 62 57 55 58 60 59 58 56 55 55 54 56 58 55 48 47 46 47 45 47 50 52 54 45 28 24 21 17 17 14 12 11 10 10 10 8 7 7 7 7 8 8 8 8 9 12 12 12 14 15 16 17
nan nan nan nan nan nan nan nan nan nan nan nan nan nan nan nan nan nan nan nan nan nan nan nan nan nan nan 51 59 66 68 66 68 67 66 63 57 57 59 58 58 55 53 55 55 53 52 51 45 38 42 47 46 48 51 48 44 42 47 45 32 23 19 14 11 11 10 11 12 10 8 8 7 7 7 8 9 9 8 9 10 11 13 14 17 18
nan nan nan nan nan nan nan nan nan nan nan nan nan nan nan nan nan nan nan nan nan nan nan nan nan 65 62 53 54 60 65 66 67 68 71 68 61 59 61 60 58 55 53 57 58 53 49 50 45 39 38 39 39 39 40 39 34 29 31 31 42 31 19 16 14 11 10 12 12 11 10 10 8 7 7 8 9 9 9 8 9 10 12 15 17 18
nan nan nan nan nan nan nan nan nan nan nan nan nan nan nan nan nan nan nan nan nan nan 74 nan nan 68 58 53 54 57 61 nan nan 74 76 nan 70 64 61 60 61 59 57 59 61 58 55 52 48 45 44 42 37 32 36 32 30 35 34 26 19 14 14 17 17 13 11 11 12 13 12 11 10 8 7 8 9 9 9 9 8 10 11 14 15 17
nan nan 22 nan nan nan nan nan nan nan nan nan nan nan nan nan nan 79 nan 76 76 77 nan 81 nan 68 63 nan nan 58 59 nan nan nan nan nan 71 67 63 59 62 64 62 59 59 61 61 59 55 53 49 43 41 39 35 33 32 30 29 26 19 14 14 17 17 14 12 11 12 13 13 13 12 11 9 9 9 9 9 10 10 10 11 13 14 16
nan nan nan nan nan nan nan nan nan nan nan nan nan nan nan 69 71 71 nan nan 78 78 nan nan nan nan nan nan nan nan nan nan nan nan nan nan nan 66 65 60 60 63 63 60 60 60 60 60 58 53 48 45 43 41 37 34 31 34 34 30 24 22 21 20 19 16 13 11 12 13 14 14 13 13 12 11 10 9 10 11 11 11 12 12 14 15
16 nan 22 nan nan nan nan nan nan nan nan nan nan nan 64 71 72 69 68 nan 80 nan nan nan nan nan nan nan nan nan 58 nan nan nan nan nan nan nan 64 61 59 60 61 60 60 61 62 61 58 53 49 45 42 39 38 37 36 35 35 33 32 29 24 22 18 18 15 12 13 14 15 15 14 14 15 13 10 10 11 11 12 12 13 12 13 14
nan nan 20 nan nan nan nan nan nan nan nan 19 33 50 63 69 nan nan nan nan 77 nan nan nan nan nan nan nan nan nan nan nan nan nan nan nan nan nan nan nan 61 61 nan 59 58 59 60 59 56 52 49 47 44 42 40 39 37 34 31 30 29 28 23 19 16 18 15 12 14 16 17 16 15 15 16 15 13 13 13 13 13 14 14 13 13 13
nan nan 17 nan nan nan nan nan nan nan nan 26 34 46 54 64 nan nan nan 70 nan nan nan nan nan nan nan nan nan nan nan nan nan nan nan nan nan nan nan nan nan 66 nan nan nan 56 54 54 55 55 54 51 48 45 42 38 35 31 29 26 26 25 21 15 13 15 18 18 17 17 17 17 15 15 16 16 16 16 15 15 15 15 15 15 14 14
nan nan nan nan nan nan nan nan nan nan nan 33 35 40 45 52 nan nan nan 74 nan nan nan nan nan nan nan nan nan nan nan nan nan nan nan nan nan nan nan nan nan nan nan nan nan nan 54 54 54 54 53 50 47 45 41 38 35 30 27 25 24 21 17 13 13 19 23 21 19 17 16 16 16 16 17 19 19 19 19 18 16 16 17 16 16 15
nan nan nan nan nan nan nan nan nan nan 28 30 35 36 35 40 nan nan 73 nan nan nan nan nan nan nan nan nan nan nan nan nan nan nan nan nan nan nan nan nan nan nan nan nan nan nan 55 53 53 52 52 51 49 46 43 42 39 34 29 26 21 18 17 18 20 24 25 22 19 18 17 16 16 17 19 21 22 22 19 19 19 18 18 18 18 16
nan nan nan nan nan nan nan nan nan nan nan nan 35 nan 39 40 44 55 nan nan nan nan nan nan nan nan nan nan nan nan nan nan nan nan nan nan nan nan nan nan nan nan nan nan nan 57 56 53 50 50 51 51 49 47 47 46 42 37 32 26 20 18 21 25 27 26 26 25 22 20 18 17 17 17 19 21 22 22 21 22 21 20 20 20 19 17
nan nan nan nan nan nan nan nan nan 27 nan nan nan nan nan 35 41 nan 59 nan nan nan nan nan nan nan nan nan nan nan nan nan nan nan nan nan nan nan nan nan nan nan nan nan nan 56 56 51 49 48 49 49 48 47 46 44 43 40 34 27 21 20 25 28 28 28 28 26 23 22 20 19 18 18 18 20 22 22 22 23 23 22 22 21 20 19
nan nan nan nan nan nan nan nan nan nan nan nan 30 nan nan nan nan nan nan nan nan nan nan nan nan nan nan nan nan nan nan nan nan nan nan nan nan nan nan nan nan nan nan nan nan 55 52 50 49 47 46 47 49 48 47 45 42 40 36 31 25 24 27 28 28 29 28 26 25 24 23 22 21 19 19 21 23 22 22 23 24 23 22 23 21 19
nan nan nan nan nan nan nan nan nan nan nan nan nan 33 34 35 nan nan nan nan nan nan nan nan nan nan nan nan nan nan nan nan nan nan nan nan nan nan nan nan nan nan nan nan 61 58 53 49 48 47 47 47 47 47 48 47 46 43 40 37 30 26 29 30 30 29 29 28 27 26 26 26 24 22 21 22 23 22 23 23 24 23 23 23 21 19
nan nan nan nan nan nan nan nan nan nan nan nan nan nan 35 35 37 40 nan nan nan nan nan nan nan nan nan nan nan nan nan nan nan nan nan nan nan nan nan nan nan nan nan nan 58 56 52 53 52 51 50 48 46 47 48 48 47 46 45 45 36 30 31 31 31 30 30 30 30 30 30 29 27 26 25 25 25 24 25 25 25 24 22 21 20 19
nan nan nan nan nan nan nan nan nan nan nan nan nan nan nan nan nan nan nan nan nan nan nan nan nan nan nan nan nan nan nan nan nan nan nan nan nan nan nan nan nan nan nan nan 55 53 52 54 56 55 54 49 47 47 46 45 46 46 48 46 47 35 33 33 32 32 31 31 33 34 34 33 31 31 30 29 28 27 26 27 27 26 22 20 19 18
nan nan nan nan nan nan nan nan nan nan nan nan nan nan nan nan nan nan nan nan nan nan nan nan nan nan nan nan nan nan nan nan nan nan nan nan nan nan nan nan nan nan nan nan 57 53 52 51 53 53 52 50 49 47 45 45 45 47 48 48 46 48 40 34 34 32 33 34 36 38 38 38 37 35 34 33 32 30 30 30 28 27 23 18 18 18
nan nan nan nan nan nan nan nan nan nan nan nan nan nan nan nan nan nan nan nan nan nan nan nan nan nan nan nan nan nan nan nan nan nan nan nan nan nan nan nan nan nan 67 66 61 58 59 56 55 54 53 49 47 46 46 45 45 44 47 47 48 48 48 47 39 34 34 36 38 41 42 41 41 40 39 39 38 38 42 46 46 39 27 20 16 15
nan nan nan nan nan nan nan nan nan nan nan nan nan nan nan nan nan nan nan nan nan nan nan nan nan nan nan nan nan nan nan nan nan nan nan nan nan nan nan nan nan 78 74 71 69 69 68 63 62 60 61 56 50 48 46 45 44 44 44 46 47 48 47 47 47 42 37 38 40 42 44 46 46 46 45 44 43 44 43 42 43 49 44 35 26 20
Wind_Direction
nan nan nan nan nan nan nan nan nan nan nan nan nan nan nan nan nan nan nan nan nan nan 288 303 300 302 305 304 300 293 295 290 270 250 277 277 274 259 275 272 302 307 311 308 305 301 282 271 289 nan nan nan nan nan nan nan nan nan nan 298 312 319 250 308 336 16 30 nan 71 nan nan nan nan 92 89 75 84 82 79 74 82 83 88 87 90 93
nan nan nan nan nan nan nan nan nan nan nan nan nan nan nan nan nan nan nan nan nan nan 285 301 294 297 307 315 305 291 290 282 293 297 286 283 266 253 264 263 248 262 290 306 299 306 294 267 nan nan nan nan nan nan nan nan nan nan 265 296 296 249 256 306 350 15 43 nan 70 nan nan nan nan 80 73 78 77 73 75 71 76 81 80 81 87 94
nan nan nan nan nan nan nan nan nan nan nan nan nan nan nan nan nan nan nan nan nan 284 290 301 295 294 304 308 311 306 292 285 288 283 284 287 273 261 266 268 265 258 245 308 307 314 302 289 299 nan nan nan nan nan nan nan nan nan 246 267 277 259 274 292 342 36 64 74 92 87 nan nan nan 101 86 nan 68 58 59 65 64 68 76 74 80 83
nan nan nan nan nan nan nan nan nan nan nan nan nan nan nan nan nan nan nan nan nan 261 284 294 288 285 285 294 302 302 298 286 288 288 280 277 284 281 276 271 270 259 264 252 321 320 311 298 284 nan nan nan nan nan nan nan nan nan 224 252 266 267 274 299 31 75 84 68 97 95 69 nan nan nan nan nan 107 60 53 60 64 69 66 70 72 71
nan nan nan nan nan nan nan nan nan nan nan nan nan nan nan nan nan nan nan nan nan nan 290 279 271 277 284 292 302 302 295 282 283 286 282 279 277 274 260 262 267 269 266 282 316 319 316 308 292 263 267 nan nan nan nan nan nan nan 229 256 261 263 276 293 14 72 88 93 115 111 115 129 nan nan nan nan 146 69 77 70 78 69 62 63 66 65
nan nan nan nan nan nan nan nan nan nan nan nan nan nan nan nan nan nan nan nan nan nan 266 276 262 276 288 304 308 301 290 283 280 287 287 284 282 278 285 278 256 245 270 308 334 327 321 318 298 267 279 nan nan nan nan 255 nan nan 230 247 250 250 254 294 9 70 107 84 108 113 123 154 nan nan nan nan nan 78 82 70 82 88 69 66 72 72
nan nan nan nan nan nan nan nan nan nan nan nan nan nan nan nan nan nan nan nan nan nan 225 279 273 267 282 296 306 308 305 298 277 278 286 284 282 286 277 259 254 298 305 308 327 327 323 325 317 298 290 nan nan 251 nan 241 nan 247 nan 248 251 251 246 259 3 63 153 110 126 117 107 nan nan nan nan nan nan 78 88 97 86 88 92 85 81 73
nan nan nan nan nan nan nan nan nan nan nan nan nan nan nan nan nan nan nan nan nan nan nan nan 244 263 275 290 307 311 308 298 290 283 285 284 285 291 269 263 276 302 303 316 329 330 327 322 324 317 300 283 266 257 nan 244 246 250 nan 246 253 244 255 246 265 57 149 155 150 142 145 175 nan nan nan nan nan nan 87 81 81 95 95 87 97 93
nan nan nan nan nan nan nan nan nan nan nan nan nan nan nan nan nan nan nan nan nan nan nan nan nan nan 263 283 297 296 296 294 292 285 277 279 287 292 290 289 294 290 287 304 323 332 327 320 318 313 299 287 271 269 270 253 247 241 245 241 247 251 259 259 299 341 153 186 172 172 155 175 153 163 nan 142 179 110 nan 70 78 83 82 78 81 95
nan nan nan nan nan nan nan nan nan nan nan nan nan nan nan nan nan nan nan nan nan nan nan nan nan nan nan 276 273 286 303 311 312 311 307 300 296 295 292 289 292 269 254 281 318 325 316 316 313 318 316 308 287 278 265 256 247 243 246 245 252 254 258 261 294 309 298 225 222 212 182 163 170 182 177 174 198 192 100 nan 53 65 68 71 67 73
nan nan nan nan nan nan nan nan nan nan nan nan nan nan nan nan nan nan nan nan nan nan nan nan nan nan nan 249 281 283 310 339 321 300 302 308 307 302 290 290 290 276 266 271 303 318 303 306 317 325 336 335 308 277 282 275 271 257 259 259 253 258 249 264 289 297 319 273 263 264 235 165 191 193 207 199 189 184 193 95 67 38 53 54 54 46
nan nan nan nan nan nan nan nan nan nan nan nan nan nan nan nan nan nan nan nan nan nan nan nan nan nan nan nan 273 303 332 337 329 329 321 321 318 303 288 282 291 290 267 276 292 310 300 283 305 326 339 342 330 301 304 292 282 272 264 266 265 254 255 256 277 292 297 286 285 279 285 299 208 224 212 232 221 184 196 158 318 340 332 37 50 36
nan nan nan nan nan nan nan nan nan nan nan nan nan nan nan nan nan nan nan nan nan nan nan nan nan nan nan nan nan 267 305 324 327 328 332 324 318 312 301 295 287 277 261 262 272 291 297 306 308 324 333 340 343 322 322 308 292 279 271 276 278 271 264 255 265 286 294 292 290 290 304 292 258 251 237 234 235 209 207 212 240 270 326 349 18 34
nan nan nan nan nan nan nan nan nan nan nan nan nan nan nan nan nan nan nan nan nan nan nan nan nan nan nan nan nan nan 302 313 317 324 336 332 328 318 307 294 282 272 264 260 257 275 298 305 308 318 322 337 345 337 327 316 291 276 271 278 288 278 270 259 259 269 279 293 291 294 298 293 276 269 255 239 242 230 214 226 242 273 309 343 4 11
nan nan nan nan nan nan nan nan nan nan nan nan nan nan nan nan nan nan nan nan nan nan nan nan nan nan nan nan nan nan nan nan 310 307 315 332 332 320 308 299 288 275 270 264 261 274 288 301 296 303 318 335 342 341 336 321 300 283 273 276 284 267 261 260 261 259 277 270 279 283 292 292 266 270 256 251 245 249 246 230 245 255 280 317 355 360
nan nan nan nan nan nan nan nan nan nan nan nan nan nan nan nan nan nan nan nan nan nan nan nan nan nan nan nan nan nan nan nan nan 306 289 308 317 305 296 310 297 290 287 278 280 287 280 278 280 284 317 329 339 343 337 335 307 292 284 281 279 273 263 256 255 253 265 266 264 277 287 298 286 253 254 250 244 252 260 258 260 258 277 308 310 318
nan nan nan nan nan nan nan nan nan nan nan nan nan nan nan nan nan nan nan nan nan nan nan nan nan nan nan nan nan nan nan nan nan nan 296 293 296 298 300 323 313 306 301 295 292 290 281 267 269 292 313 327 336 338 339 335 315 295 279 273 268 259 244 246 247 252 251 256 263 274 285 287 277 274 273 267 271 272 270 270 270 273 284 290 282 280
nan nan nan nan nan nan nan nan nan nan nan nan nan nan nan nan nan nan nan nan nan nan nan nan nan nan nan nan nan nan nan nan nan nan 288 286 288 291 292 308 317 308 304 302 298 292 284 275 284 279 291 317 327 333 334 325 307 288 280 278 276 263 257 241 233 229 230 244 255 263 279 288 294 291 283 271 277 272 271 276 278 281 275 286 293 300
nan nan nan nan nan nan nan nan nan nan nan nan nan nan nan nan nan nan nan nan nan nan nan nan nan nan nan nan nan nan nan nan nan nan 272 279 282 285 285 299 306 304 297 296 299 285 275 279 284 283 285 299 311 323 325 313 311 299 287 285 285 283 268 257 234 224 219 229 232 244 269 287 291 285 280 272 276 276 279 289 290 296 300 291 292 297
nan nan nan nan nan nan nan nan nan nan nan nan nan nan nan nan nan nan nan nan nan nan nan nan nan nan nan nan nan nan nan nan nan nan 264 279 282 282 286 288 283 287 292 294 292 282 283 286 291 291 290 292 304 315 317 322 318 318 304 292 285 276 266 262 259 250 244 239 234 239 249 264 276 283 283 279 283 288 291 290 293 296 293 298 287 299
nan nan nan nan nan nan nan nan nan nan nan nan nan nan nan nan nan nan nan nan nan nan nan nan nan nan nan nan nan nan nan nan nan nan 257 277 280 282 285 280 277 282 288 291 282 281 288 288 284 282 281 280 288 305 316 320 322 317 310 303 296 292 287 282 270 260 253 248 250 253 263 274 276 285 274 276 284 293 295 290 292 295 289 281 283 287
nan nan nan nan nan nan nan nan nan nan nan nan nan nan nan nan nan nan nan nan nan nan nan nan nan nan nan nan nan nan nan nan nan nan nan 273 267 278 274 275 276 275 277 282 282 291 293 291 289 276 268 262 274 304 321 311 306 312 323 319 306 297 290 286 270 252 249 245 250 262 263 270 269 277 275 286 285 290 291 289 289 293 286 288 289 279
nan nan nan nan nan nan nan nan nan nan nan nan nan nan nan nan nan nan nan nan nan nan nan nan nan nan nan nan nan nan nan nan nan nan nan 271 261 270 272 273 278 277 278 276 280 288 296 299 293 277 272 274 293 302 292 274 274 295 317 319 315 312 306 293 277 254 245 252 258 267 259 263 268 272 284 296 286 293 291 289 289 290 297 292 286 281
nan nan nan nan nan nan nan nan nan nan nan nan nan nan nan nan nan nan nan nan nan nan nan nan nan nan nan nan nan nan nan nan nan nan nan 258 256 270 263 270 276 273 274 275 270 270 282 289 281 263 265 269 264 267 281 278 265 250 279 309 307 320 320 314 294 272 264 267 275 279 274 276 273 283 286 294 285 293 291 287 288 287 299 299 289 290
nan nan nan nan nan nan nan nan nan nan nan nan nan nan nan nan nan nan nan nan nan nan nan nan nan nan nan 178 179 178 nan nan nan nan nan nan 236 251 258 258 268 271 269 270 267 264 269 277 276 268 273 274 268 266 267 268 268 258 273 293 297 304 317 323 317 318 312 305 306 297 292 294 287 289 293 292 278 289 288 287 288 285 296 299 296 294
nan nan nan nan nan nan nan nan nan nan nan nan nan nan nan nan nan nan nan nan nan nan nan nan nan nan nan 176 163 172 185 nan nan nan nan nan nan 245 232 240 236 255 265 265 262 258 264 271 268 262 264 263 262 266 268 267 266 264 255 280 280 288 301 323 327 342 346 340 334 320 311 301 296 298 298 290 279 281 282 283 287 289 289 297 298 294
nan nan nan nan nan nan nan nan nan nan nan nan nan nan nan nan nan nan nan nan nan nan nan nan nan nan nan 172 164 176 187 194 190 208 206 nan nan nan 250 263 262 264 268 271 263 256 250 248 263 267 267 263 260 261 263 264 266 263 257 268 282 282 292 305 321 335 348 352 356 343 331 313 305 293 292 289 281 272 272 278 285 291 293 293 296 294
nan nan nan nan nan nan nan nan nan nan nan nan nan nan nan nan nan nan nan nan nan nan nan nan nan nan nan nan 165 183 187 189 189 198 205 194 186 197 206 222 250 278 275 271 265 264 255 249 259 266 268 264 256 254 255 256 258 259 259 264 271 278 282 287 313 330 339 340 354 355 348 336 316 300 290 281 278 275 277 277 277 283 286 288 296 293
nan nan nan nan nan nan nan nan nan nan nan nan nan nan nan nan nan nan nan nan nan nan nan nan nan nan nan nan 176 189 188 189 189 195 204 193 185 190 206 215 214 217 228 229 223 221 233 252 249 256 259 260 257 253 254 255 253 249 250 250 258 273 284 287 302 325 336 335 348 349 339 335 328 309 292 283 277 277 278 277 273 274 277 282 288 283
nan nan nan nan nan nan nan nan nan nan nan nan nan nan nan nan nan nan nan nan nan nan nan nan nan nan nan 187 nan 187 195 194 187 190 202 197 190 196 205 211 213 211 213 218 218 221 220 215 214 210 213 224 237 244 246 249 252 253 253 253 259 265 277 285 299 316 331 336 328 310 311 326 329 328 315 298 286 275 271 271 270 270 273 277 280 280
nan nan nan nan nan nan nan nan nan nan nan nan nan nan nan nan nan nan nan nan nan nan nan nan nan nan nan 194 201 192 197 202 195 196 201 199 194 195 203 210 211 209 209 213 220 224 222 221 220 217 213 215 216 213 216 218 226 239 239 244 248 255 267 280 289 303 319 323 302 286 289 303 326 329 332 323 301 279 269 266 263 264 271 273 273 276
nan nan nan nan nan nan nan nan nan nan nan nan nan nan nan nan nan nan nan nan nan nan nan nan nan nan 198 198 195 197 199 205 206 203 201 200 197 196 201 207 210 207 206 209 215 221 220 219 222 219 215 213 218 226 227 224 214 204 212 228 232 242 250 262 280 296 306 305 295 289 290 294 314 331 334 324 318 303 280 266 263 259 264 272 274 268
nan nan nan nan nan nan nan nan nan nan nan nan nan nan nan nan nan nan nan nan nan nan nan nan nan nan nan 202 200 195 195 200 209 207 205 203 200 199 203 208 212 210 205 207 210 216 219 215 212 217 215 215 219 229 232 232 230 224 202 195 204 224 232 244 264 281 289 293 298 297 287 283 305 329 333 327 318 308 296 282 273 266 258 271 271 266
nan nan nan nan nan nan nan nan nan nan nan nan nan nan nan nan nan nan nan nan nan nan nan nan nan 201 204 209 207 197 196 199 204 209 212 211 204 200 202 208 214 217 213 207 206 210 213 212 202 205 214 217 224 229 231 237 243 228 228 212 188 189 219 228 245 263 276 281 291 294 286 281 291 316 328 314 311 312 317 307 293 276 259 257 263 269
nan nan nan nan nan nan nan nan nan nan nan nan nan nan nan nan nan nan nan nan nan nan 203 nan nan 202 201 201 201 196 195 nan nan 202 208 nan 205 199 199 203 208 213 213 209 205 205 207 208 210 211 213 213 211 225 232 231 220 215 220 222 214 189 222 232 240 252 263 273 283 287 285 285 287 294 299 303 307 313 320 320 299 286 270 261 266 272
nan nan 256 nan nan nan nan nan nan nan nan nan nan nan nan nan nan 212 nan 220 212 205 nan 210 nan 206 203 nan nan 198 194 nan nan nan nan nan 204 199 197 200 202 205 205 207 208 208 208 210 213 214 215 211 213 218 230 217 207 215 212 213 227 244 258 258 250 256 261 266 277 288 288 284 282 281 281 287 297 310 317 314 309 297 281 269 263 265
nan nan nan nan nan nan nan nan nan nan nan nan nan nan nan 212 211 212 nan nan 217 211 nan nan nan nan nan nan nan nan nan nan nan nan nan nan nan 200 197 197 199 200 201 204 209 210 211 211 212 214 216 215 211 207 208 211 207 213 217 221 234 254 269 276 269 261 266 272 276 283 284 280 278 277 279 279 287 304 309 307 307 296 281 280 272 269
272 nan 263 nan nan nan nan nan nan nan nan nan nan nan 208 208 210 208 210 nan 218 nan nan nan nan nan nan nan nan nan 196 nan nan nan nan nan nan nan 201 200 199 198 198 201 205 208 210 210 211 211 212 214 215 212 208 207 207 208 210 221 230 238 255 273 276 264 262 267 274 281 280 274 270 273 275 275 284 294 293 296 293 295 284 287 281 276
nan nan 267 nan nan nan nan nan nan nan nan 219 213 212 208 205 nan nan nan nan 216 nan nan nan nan nan nan nan nan nan nan nan nan nan nan nan nan nan nan nan 201 199 nan 198 201 204 206 209 210 210 210 210 212 213 211 211 212 212 212 213 226 236 243 259 269 266 265 267 267 270 272 268 262 263 271 276 277 276 285 293 293 287 283 283 280 273
nan nan 276 nan nan nan nan nan nan nan nan 217 204 204 206 207 nan nan nan 213 nan nan nan nan nan nan nan nan nan nan nan nan nan nan nan nan nan nan nan nan nan 199 nan nan nan 203 205 207 208 210 211 208 208 208 207 207 210 212 214 216 219 231 240 246 263 266 256 254 258 263 268 267 263 257 263 271 269 267 271 272 276 286 288 283 277 271
nan nan nan nan nan nan nan nan nan nan nan 223 204 197 202 207 nan nan nan 212 nan nan nan nan nan nan nan nan nan nan nan nan nan nan nan nan nan nan nan nan nan nan nan nan nan nan 205 205 206 207 208 209 208 209 210 209 207 206 210 214 217 217 222 233 245 253 254 257 261 266 272 267 262 257 253 258 262 262 262 266 276 282 284 283 277 274
nan nan nan nan nan nan nan nan nan nan 242 222 209 193 201 210 nan nan 215 nan nan nan nan nan nan nan nan nan nan nan nan nan nan nan nan nan nan nan nan nan nan nan nan nan nan nan 203 204 203 203 206 209 207 208 210 210 207 205 205 208 209 208 212 223 242 251 253 258 264 268 270 271 264 256 250 253 258 263 266 267 271 276 281 276 275 279
nan nan nan nan nan nan nan nan nan nan nan nan 208 nan 217 213 214 216 nan nan nan nan nan nan nan nan nan nan nan nan nan nan nan nan nan nan nan nan nan nan nan nan nan nan nan 201 201 202 202 202 202 205 206 207 208 206 205 204 205 203 197 200 211 226 241 251 254 256 262 266 269 269 271 260 251 254 262 266 268 266 269 273 276 278 276 276
nan nan nan nan nan nan nan nan nan 252 nan nan nan nan nan 214 207 nan 212 nan nan nan nan nan nan nan nan nan nan nan nan nan nan nan nan nan nan nan nan nan nan nan nan nan nan 200 199 200 202 201 201 203 205 206 206 207 208 209 206 198 197 205 218 229 241 250 253 256 262 264 265 266 268 264 256 258 260 264 268 270 270 270 273 278 276 271
nan nan nan nan nan nan nan nan nan nan nan nan 229 nan nan nan nan nan nan nan nan nan nan nan nan nan nan nan nan nan nan nan nan nan nan nan nan nan nan nan nan nan nan nan nan 199 200 200 200 201 202 204 203 204 206 208 210 208 203 199 202 214 227 233 241 250 254 257 260 264 264 262 261 262 259 257 261 264 269 272 272 272 273 276 276 272
nan nan nan nan nan nan nan nan nan nan nan nan nan 231 228 219 nan nan nan nan nan nan nan nan nan nan nan nan nan nan nan nan nan nan nan nan nan nan nan nan nan nan nan nan 199 199 200 201 203 204 204 203 204 205 208 208 209 206 203 198 202 220 232 237 242 247 255 257 260 263 264 263 262 262 264 264 262 266 268 271 272 273 272 274 275 275
nan nan nan nan nan nan nan nan nan nan nan nan nan nan 234 229 218 214 nan nan nan nan nan nan nan nan nan nan nan nan nan nan nan nan nan nan nan nan nan nan nan nan nan nan 199 202 206 209 210 210 207 204 207 209 208 206 207 206 204 200 203 223 233 239 243 247 249 254 257 259 261 264 260 259 262 265 263 264 267 271 273 275 275 277 279 280
nan nan nan nan nan nan nan nan nan nan nan nan nan nan nan nan nan nan nan nan nan nan nan nan nan nan nan nan nan nan nan nan nan nan nan nan nan nan nan nan nan nan nan nan 203 206 209 212 214 214 212 210 210 209 208 209 208 207 204 205 204 217 234 238 242 245 247 253 254 256 259 260 265 265 259 262 264 264 266 271 275 279 284 287 284 280
nan nan nan nan nan nan nan nan nan nan nan nan nan nan nan nan nan nan nan nan nan nan nan nan nan nan nan nan nan nan nan nan nan nan nan nan nan nan nan nan nan nan nan nan 207 207 208 209 212 213 213 212 212 210 208 207 209 207 206 206 210 212 218 235 240 241 246 247 249 252 254 256 257 258 258 260 261 260 264 269 272 274 275 277 271 271
nan nan nan nan nan nan nan nan nan nan nan nan nan nan nan nan nan nan nan nan nan nan nan nan nan nan nan nan nan nan nan nan nan nan nan nan nan nan nan nan nan nan 214 216 215 214 212 213 217 218 219 218 215 212 210 208 208 209 207 208 211 215 219 219 227 239 242 243 245 247 250 252 254 255 256 258 259 261 251 242 247 248 263 272 280 272
nan nan nan nan nan nan nan nan nan nan nan nan nan nan nan nan nan nan nan nan nan nan nan nan nan nan nan nan nan nan nan nan nan nan nan nan nan nan nan nan nan 221 219 218 218 220 220 221 223 225 226 224 220 215 212 210 210 209 209 209 211 216 219 223 223 223 231 241 243 245 247 248 249 250 251 252 256 260 262 256 248 244 243 235 230 256